Theta_e
304 295 293 292 294 296 298 299 299 300 301 300 300 299 296 297 298 301 302 304 305 302 300 301 302 301 302 305 308 310 311 311 316 319 320 322 322 324 322 322 321 324 325 332 337 340 340 342 342 344 344 344 345 346 346 345 345 345 343 344 344 347 348 348 346 344 342 342 343 343 343 344 345 343 345 345 346 344 344 343 343 344 344 342 341 340
302 294 294 296 297 298 299 300 301 300 300 299 299 298 297 297 297 301 301 304 305 302 299 302 301 301 303 306 308 310 309 309 318 319 319 320 322 323 321 319 315 322 326 334 335 338 338 339 341 343 343 343 343 343 345 344 345 345 346 344 345 347 348 346 346 346 349 344 345 341 341 342 341 344 344 343 344 346 347 344 344 343 343 342 342 342
295 293 296 298 300 300 301 300 300 300 299 299 298 298 297 297 300 302 303 304 304 302 299 301 300 301 304 305 307 308 308 311 318 320 320 319 321 323 322 322 322 323 324 329 332 333 336 337 339 340 343 343 344 344 344 345 344 345 344 345 345 345 346 347 348 349 343 346 346 344 343 341 340 344 346 345 346 348 345 345 345 345 344 342 342 342
291 294 299 301 300 299 299 300 300 300 300 298 298 297 295 299 297 295 301 303 304 301 300 301 299 301 305 306 307 308 308 310 321 321 323 323 320 322 321 322 321 320 322 328 329 329 332 336 337 340 341 341 344 343 342 344 343 344 344 343 344 343 345 347 345 344 344 346 344 346 346 344 342 339 341 342 344 344 345 344 345 345 344 342 342 342
294 298 301 301 300 299 298 299 299 298 296 299 299 298 298 298 299 299 299 303 304 303 304 301 299 299 302 302 304 308 310 310 318 315 317 321 321 324 325 327 325 322 322 326 327 326 326 331 331 335 339 342 342 342 341 343 344 342 343 343 344 346 345 347 345 345 346 345 343 343 345 343 341 341 340 339 338 340 342 342 342 343 344 343 343 343
297 301 302 299 299 299 298 297 298 298 295 297 300 300 300 300 300 300 301 300 298 296 300 300 292 293 301 302 303 306 307 308 311 312 313 320 321 323 323 323 328 329 328 325 326 328 329 330 332 335 335 338 339 339 341 344 344 343 343 345 344 345 346 347 345 345 345 345 341 340 340 337 337 336 339 337 338 342 340 340 345 345 343 342 342 342
299 302 301 298 298 298 298 297 299 299 296 296 297 302 302 301 301 300 299 298 293 291 298 302 293 289 300 300 302 305 306 308 313 315 317 318 320 322 323 324 325 325 328 329 328 330 329 330 332 335 335 337 336 337 342 342 342 343 344 344 344 344 346 345 345 346 344 342 344 342 339 337 336 335 337 342 344 343 343 343 346 345 346 343 342 342
300 301 300 300 298 296 296 294 298 299 296 295 302 303 302 301 300 299 299 298 296 300 301 300 298 293 293 299 303 304 306 308 310 312 314 318 320 321 321 323 325 326 328 327 326 328 329 332 333 333 334 334 334 336 337 339 340 339 341 342 343 345 345 347 347 346 346 343 343 341 340 338 337 337 337 339 340 342 343 343 342 345 345 344 343 341
301 299 300 298 297 295 294 297 300 301 297 297 302 303 301 301 300 300 299 297 298 297 293 296 299 293 293 299 304 304 302 304 305 307 311 315 319 319 319 320 323 326 328 328 328 328 329 328 330 331 331 333 334 335 335 335 337 339 340 340 341 343 343 344 344 345 346 345 343 341 340 339 339 339 338 338 338 339 341 340 341 342 342 342 343 343
301 301 301 301 297 294 298 300 301 301 297 301 304 304 302 301 301 300 299 297 297 294 289 294 298 291 292 299 299 303 302 302 304 308 317 319 319 319 318 319 323 327 327 328 327 327 327 328 329 331 332 332 335 337 335 336 337 337 337 337 336 337 340 343 343 344 343 343 342 340 340 338 338 338 338 338 337 338 339 338 339 340 339 339 342 341
303 305 306 302 299 299 300 301 301 302 302 304 303 301 299 299 299 299 299 298 295 289 292 296 298 295 289 296 298 299 301 303 306 310 319 318 319 319 320 322 323 324 326 326 326 326 326 327 329 330 329 331 334 336 336 336 336 336 336 336 335 338 339 341 342 341 340 340 340 338 338 337 336 336 336 334 334 334 335 335 336 338 339 339 336 337
302 302 301 302 306 304 302 299 302 303 304 302 299 297 297 295 297 296 296 297 289 287 294 297 297 297 288 293 300 304 306 307 308 310 315 316 317 316 319 320 321 324 325 324 323 323 324 325 325 327 327 328 329 332 332 333 335 337 337 337 335 337 338 338 339 340 340 339 341 339 338 336 337 336 334 333 332 333 333 333 334 335 338 338 337 336
296 298 301 301 306 303 299 297 299 302 302 300 298 296 292 289 289 286 291 287 287 286 294 297 298 294 292 297 302 304 306 308 312 315 316 318 318 318 319 321 321 323 321 321 321 322 322 322 323 324 325 326 327 328 329 330 333 334 333 333 333 332 335 334 335 335 336 336 336 336 337 337 338 337 335 334 333 334 333 333 333 334 334 337 335 335
294 300 299 299 302 304 302 294 295 295 298 296 294 293 290 286 284 282 286 289 290 293 298 297 299 293 297 301 311 306 310 315 314 317 319 319 318 318 318 318 319 320 320 320 321 321 321 321 322 323 324 324 325 326 328 329 330 330 330 331 330 331 333 333 334 334 334 335 336 336 336 336 336 335 335 334 333 334 334 334 333 333 333 334 334 334
286 288 295 298 294 303 301 299 298 296 296 296 299 295 293 291 287 282 285 283 286 289 294 298 293 291 295 301 313 313 314 316 316 316 319 319 318 317 317 317 317 317 318 319 319 319 320 321 321 322 323 324 325 325 326 327 327 328 328 329 328 328 330 331 332 333 333 333 334 335 335 335 335 334 334 333 333 333 333 333 333 333 333 334 333 335
291 291 297 301 301 302 299 302 302 299 297 298 299 299 294 292 297 288 289 290 290 289 290 293 292 302 301 310 313 314 314 314 317 317 317 316 316 316 315 314 315 315 316 317 317 318 319 320 321 322 322 323 323 324 325 325 327 327 327 327 327 327 328 329 330 330 331 332 333 334 334 335 335 335 335 333 334 335 335 334 334 334 335 334 334 334
292 290 299 300 302 301 300 301 300 302 290 296 296 292 295 302 298 292 291 297 294 290 288 297 298 303 308 308 310 312 312 313 315 314 314 314 314 314 312 313 313 314 315 316 316 317 318 318 319 320 321 321 323 323 324 324 325 325 325 325 325 326 327 327 328 328 329 329 330 331 331 332 332 333 333 333 333 334 334 333 334 333 332 333 334 332
291 291 298 298 296 301 303 301 301 302 302 298 291 295 302 304 301 295 287 289 288 285 287 298 295 295 298 289 308 308 309 311 311 312 313 312 312 311 311 312 312 313 314 316 316 317 317 318 319 319 320 320 321 321 323 323 325 326 326 325 324 324 324 326 326 327 327 328 328 329 329 330 331 331 332 333 333 333 332 333 332 332 330 330 331 331
297 289 294 298 298 301 303 301 298 301 303 298 296 303 294 289 288 295 291 284 284 284 286 292 298 297 299 297 304 304 307 308 309 311 310 309 309 310 310 311 312 313 314 314 314 315 316 316 317 318 318 319 320 321 322 323 324 324 324 324 324 323 325 325 326 327 327 327 327 328 328 329 330 331 331 332 333 333 332 332 333 332 331 332 332 331
299 289 291 299 298 300 299 297 289 294 301 302 303 298 300 298 293 290 291 293 291 285 285 288 296 291 302 302 304 305 308 309 308 309 308 308 309 309 310 310 311 312 313 313 314 314 315 315 316 317 318 318 319 320 321 322 323 321 322 322 323 324 325 325 325 325 325 326 327 327 328 329 328 330 330 331 331 332 332 331 331 331 331 331 331 331
293 299 287 294 300 299 292 295 293 295 293 295 296 294 296 297 300 297 297 292 289 287 286 286 287 295 301 308 307 308 309 310 309 308 308 308 309 310 311 311 311 312 312 313 313 313 314 315 315 316 318 318 319 321 321 321 320 320 321 321 322 322 323 323 324 324 324 325 325 326 326 327 328 329 330 331 331 331 331 331 331 332 332 332 331 330
293 294 288 293 292 292 294 299 299 299 299 297 295 294 295 293 291 288 287 296 294 291 287 286 285 298 305 311 310 310 311 310 311 309 308 309 309 310 311 311 311 311 312 312 313 313 313 314 315 316 318 319 318 318 319 320 320 320 320 321 322 322 322 322 322 322 323 324 324 324 325 326 327 328 329 330 331 330 330 330 331 331 331 330 331 331
300 298 294 289 292 293 297 300 301 302 301 300 297 295 298 296 295 291 285 290 293 294 296 293 288 293 308 311 311 312 312 311 311 310 308 308 309 309 309 310 311 311 311 311 312 312 313 313 314 315 316 316 317 318 318 319 318 318 319 320 321 321 321 322 322 322 323 323 323 324 325 326 326 328 330 330 330 330 331 330 330 331 330 330 331 331
304 292 290 292 296 298 299 301 301 301 301 298 298 299 298 294 295 293 293 296 291 292 290 290 287 295 307 311 310 312 312 311 311 310 308 307 308 309 308 309 309 309 310 311 311 312 313 313 315 314 314 314 316 316 317 317 317 318 318 319 319 319 321 321 322 322 322 322 323 324 324 324 326 328 328 328 328 329 329 330 330 331 330 330 330 329
292 295 293 289 288 290 293 296 296 299 299 296 296 298 298 298 298 298 298 303 290 293 293 290 287 292 305 311 310 311 310 308 307 308 308 306 307 308 308 308 309 309 310 310 311 311 312 312 312 312 313 314 315 315 317 316 316 317 318 319 318 320 321 321 321 321 322 322 322 323 323 324 325 326 325 327 327 328 328 329 329 330 329 330 328 328
295 294 292 286 283 281 281 282 285 289 292 295 298 297 298 298 298 296 290 292 288 294 293 290 291 299 304 307 308 307 306 306 307 307 308 308 307 307 307 308 309 309 309 309 310 310 310 311 312 312 313 314 314 315 315 315 316 317 317 318 320 319 320 320 321 321 321 321 321 321 322 322 321 321 321 323 324 324 326 327 327 328 328 329 327 328
296 298 295 293 290 288 290 293 297 297 295 291 295 296 297 298 298 298 297 291 289 293 291 295 297 297 300 302 304 305 305 304 304 305 306 306 307 307 307 308 308 308 308 309 309 309 310 310 311 312 313 314 314 315 315 315 315 316 317 318 319 319 320 320 321 320 320 320 320 319 320 319 319 319 319 320 321 322 322 323 325 326 326 328 327 327
297 292 295 296 295 295 296 296 299 297 294 294 294 295 297 296 297 297 292 291 297 293 289 299 301 298 300 304 305 305 304 304 305 305 305 306 306 306 307 307 307 308 308 309 308 309 309 310 311 312 313 314 314 315 315 316 316 316 317 317 318 319 320 321 320 319 319 319 318 318 317 317 318 318 318 319 319 319 319 319 320 320 323 324 325 326
296 290 296 296 295 297 297 297 299 298 298 296 295 296 295 296 297 294 298 298 300 291 289 300 302 301 302 304 305 305 305 304 304 305 306 307 307 306 306 306 306 307 307 307 308 309 309 309 311 312 313 313 314 314 315 315 315 317 317 317 317 318 318 319 319 318 317 317 316 316 316 317 317 317 317 316 316 316 316 316 316 316 318 320 322 324
298 292 298 297 296 297 297 298 299 296 297 297 295 295 297 298 297 297 298 300 300 300 304 303 304 303 304 306 306 306 307 306 306 307 307 306 305 305 306 306 306 306 306 307 308 309 309 310 310 311 313 313 313 313 313 314 314 315 315 316 317 317 318 319 318 317 316 315 315 315 315 315 315 315 315 315 314 314 314 313 313 313 313 314 316 317
297 292 298 298 293 295 298 299 299 299 297 296 298 297 297 298 298 297 300 303 304 304 304 303 301 299 305 307 305 307 307 307 306 305 305 305 305 305 305 305 306 306 306 307 308 308 309 309 310 311 311 312 312 313 313 314 314 315 315 316 316 316 317 317 316 315 315 314 315 315 314 314 314 314 314 314 313 313 312 312 311 311 311 311 311 312
299 294 300 298 291 291 296 297 298 298 298 297 298 297 297 297 297 302 299 305 303 300 302 301 297 297 303 306 306 306 305 304 304 304 305 305 306 305 305 305 305 306 306 307 307 308 308 309 309 310 310 311 312 313 313 313 313 314 314 315 314 315 317 316 315 314 314 314 314 314 314 314 313 313 313 313 312 312 311 310 310 309 309 310 309 309
297 296 292 292 288 288 296 298 297 296 293 292 293 298 301 303 304 306 305 307 306 306 299 294 298 302 304 304 302 303 304 304 304 305 304 305 306 306 305 305 305 306 306 307 307 308 308 308 308 310 311 310 311 311 312 313 313 313 314 314 315 316 315 314 313 313 313 313 313 313 313 313 312 312 312 312 312 311 310 309 308 307 307 307 309 308
299 298 293 297 288 289 294 296 297 291 284 287 300 300 304 304 304 301 300 303 306 307 304 305 304 304 304 303 302 302 302 303 304 306 308 306 305 306 306 306 306 306 307 307 308 308 308 308 308 308 310 311 311 311 313 314 313 314 315 314 314 314 314 313 312 312 311 312 312 313 313 312 312 312 312 311 311 310 309 308 307 307 306 306 307 306
297 296 294 297 291 288 293 294 288 283 285 296 301 302 307 307 306 303 303 303 303 304 304 303 302 302 303 304 304 304 304 305 306 306 307 308 308 306 306 306 306 306 306 306 307 307 307 307 307 308 309 309 310 313 313 312 313 314 313 314 313 313 313 312 312 311 311 310 311 312 312 311 311 311 311 311 310 309 308 307 306 306 305 305 304 304
294 294 294 291 292 292 290 289 282 283 294 300 300 301 307 307 305 302 299 302 303 303 303 301 302 303 303 303 303 304 303 303 304 306 307 307 308 307 306 306 306 307 306 307 306 306 306 306 306 307 308 310 310 310 311 312 314 313 313 313 312 312 312 311 310 310 310 309 310 310 311 311 311 310 310 310 309 308 307 306 306 305 305 304 304 304
299 297 293 290 294 286 289 288 286 291 295 297 296 298 302 300 301 298 291 296 302 303 303 301 300 300 301 301 301 300 302 302 299 300 305 306 307 307 307 307 307 307 306 306 305 305 306 307 306 308 309 310 310 310 312 312 313 313 312 311 311 311 311 311 309 309 309 309 309 310 310 310 310 309 309 308 307 306 306 306 306 306 306 304 303 303
302 294 296 291 289 291 288 285 285 286 284 290 299 303 308 307 307 304 298 294 302 303 303 300 298 298 299 299 299 299 301 297 293 295 301 304 306 306 306 306 306 305 305 304 304 305 305 306 307 308 309 308 310 311 312 312 312 311 310 310 310 310 310 309 308 308 308 308 309 309 309 309 309 308 307 306 306 305 305 306 306 306 306 304 303 302
304 303 300 292 290 289 288 285 284 283 286 295 299 303 307 308 307 305 298 291 299 300 300 299 297 298 298 297 297 299 298 291 290 295 301 303 304 304 303 303 303 303 303 303 303 303 303 305 306 306 307 307 308 310 311 311 311 310 309 309 309 309 309 308 308 308 308 308 308 308 308 308 307 306 305 304 303 304 304 305 306 306 306 305 304 303
299 295 295 291 288 288 287 286 284 287 287 296 302 304 305 307 307 304 287 288 298 301 300 299 297 297 297 298 298 299 297 290 290 295 301 302 303 304 303 302 301 301 301 302 303 304 304 304 304 304 305 306 307 310 310 310 310 310 308 308 309 308 307 308 308 308 308 308 308 308 308 307 305 304 303 302 302 302 302 303 303 303 304 304 303 302
292 292 293 289 290 289 287 287 288 290 296 302 302 304 304 306 303 290 286 293 300 301 301 300 298 298 298 298 299 293 296 299 297 300 302 302 301 301 302 302 301 301 301 302 302 302 303 303 303 302 303 305 306 307 308 309 309 308 308 308 307 307 307 308 308 307 306 305 305 305 305 305 305 304 303 303 303 303 302 302 301 301 301 301 302 302
290 290 292 291 289 288 289 287 288 290 296 301 303 304 307 300 289 289 298 304 302 301 302 300 298 299 299 299 297 297 297 299 300 301 301 301 300 301 301 300 300 301 302 303 303 303 303 303 303 303 303 304 305 305 306 307 306 307 307 307 306 308 309 309 308 307 305 304 303 303 303 303 304 304 303 303 303 303 303 303 303 302 301 301 301 300
291 289 288 289 290 290 290 287 286 282 292 303 303 302 304 293 293 302 303 304 304 301 300 300 299 300 299 295 297 298 298 298 299 300 300 300 300 299 299 299 299 299 300 301 302 302 303 302 301 302 302 303 303 304 304 305 304 304 305 305 306 308 308 308 307 305 305 304 304 304 304 304 304 303 302 302 302 301 301 301 302 302 302 301 300 300
297 289 288 288 292 286 286 286 285 292 298 303 302 294 301 303 305 305 303 300 302 301 300 300 300 298 298 297 297 297 298 298 298 299 299 299 299 299 299 299 299 300 300 301 302 302 303 302 303 302 302 302 302 303 303 303 301 302 302 302 304 305 306 305 305 304 303 303 302 303 303 303 304 304 303 302 301 300 300 300 300 300 301 301 300 299
298 295 295 287 291 290 288 290 296 301 302 304 305 304 305 306 306 304 303 302 300 300 301 299 298 298 298 298 298 298 297 298 298 299 297 297 298 298 298 299 299 300 300 301 302 303 303 302 302 302 302 302 302 303 302 302 301 301 300 302 303 302 302 302 302 302 301 301 301 301 300 301 301 302 303 302 300 298 297 298 298 297 299 300 299 299
301 299 299 294 291 296 298 298 300 300 302 302 305 306 304 304 305 305 303 300 301 301 301 298 298 298 298 299 298 298 298 298 298 298 298 298 298 298 299 299 300 300 301 301 302 302 303 303 303 302 301 302 303 303 304 303 303 301 301 302 302 302 302 302 301 301 300 300 300 299 298 298 298 299 300 302 300 298 297 296 296 296 297 297 298 298
302 302 301 293 296 293 286 297 297 298 301 302 303 304 305 305 304 304 302 302 300 301 300 300 299 300 299 298 297 297 297 298 297 298 298 298 297 297 298 299 300 300 301 300 302 302 302 302 301 301 301 301 302 303 303 303 303 303 303 303 303 303 302 301 301 301 301 301 300 300 300 299 298 297 298 299 299 299 298 296 296 296 295 296 296 297
296 305 298 297 296 292 290 295 298 300 302 303 303 302 302 303 303 304 303 303 302 301 301 300 299 298 298 297 298 297 297 298 297 296 296 296 296 297 298 298 299 301 302 303 304 304 303 302 301 301 301 301 302 302 302 302 302 302 302 302 303 303 303 302 301 300 300 300 301 300 301 300 293 296 297 298 298 298 298 297 296 295 295 295 295 295
300 303 293 296 291 294 296 298 298 300 300 301 303 303 303 303 302 302 302 301 301 299 298 299 299 298 298 298 298 297 296 296 297 297 297 298 297 297 297 299 299 300 301 301 302 303 302 301 301 301 301 301 302 303 303 302 302 302 303 302 302 302 302 302 301 302 302 302 301 301 301 302 301 299 298 297 297 296 295 296 297 295 294 294 294 296
300 294 297 294 289 289 289 292 297 291 291 297 300 302 302 302 302 300 301 300 299 298 298 298 298 299 299 299 298 297 296 295 296 296 294 295 296 297 297 297 298 298 299 302 302 302 301 302 302 301 300 301 302 302 302 302 303 304 304 303 302 302 301 301 300 300 300 300 300 300 300 300 300 301 299 297 296 295 294 289 289 292 295 294 291 289
297 299 297 293 291 290 296 298 301 300 299 299 300 302 302 303 302 300 299 299 299 299 299 298 297 297 297 298 298 297 296 296 296 296 295 295 295 296 297 297 297 297 298 301 301 300 300 300 300 300 300 301 302 301 301 302 302 303 303 303 304 303 302 301 300 299 299 299 299 299 300 300 300 300 300 300 297 297 295 294 293 289 288 289 289 289
Wind_Speed
9 12 13 14 13 15 17 16 16 19 15 12 13 13 13 13 11 16 15 18 18 15 16 15 14 19 17 15 15 13 10 9 19 16 14 13 12 10 13 12 12 10 6 3 2 4 6 7 6 5 5 5 5 4 4 4 4 3 4 4 5 3 2 2 2 3 3 2 2 1 1 2 4 4 2 5 5 5 6 6 6 6 5 5 6 6
13 13 15 16 17 16 16 17 16 18 19 16 11 12 11 15 11 13 14 21 18 13 14 16 15 18 15 16 17 14 13 10 20 17 16 16 13 14 15 14 13 7 5 2 3 5 6 6 6 4 4 4 5 5 4 4 4 4 3 4 4 3 2 3 2 2 1 1 1 2 2 2 3 1 2 2 3 2 2 5 5 5 6 6 5 5
14 15 14 17 17 17 15 17 16 17 18 17 13 10 11 11 12 10 13 23 17 15 11 16 16 15 14 17 13 12 11 8 17 17 15 16 15 14 12 12 14 7 5 5 4 5 6 7 5 4 3 3 4 4 4 3 4 4 4 2 5 3 2 2 2 1 3 2 2 2 2 3 3 3 2 2 2 1 4 4 4 4 4 5 6 6
13 14 16 16 16 17 17 15 16 17 16 13 12 10 10 11 11 9 14 18 17 11 10 14 15 12 11 13 13 12 12 11 18 18 17 15 14 17 15 15 15 14 8 7 7 5 3 5 3 3 3 3 2 3 4 3 3 2 2 3 2 4 1 2 5 2 2 2 1 1 1 2 2 4 4 4 4 3 3 4 4 3 3 5 4 6
13 11 15 17 17 18 17 16 15 14 12 14 14 12 9 14 13 13 10 13 15 13 14 13 11 11 10 13 11 11 9 13 18 15 14 15 16 15 15 16 18 16 12 7 6 4 1 3 1 1 2 3 3 3 4 2 2 2 4 3 2 2 2 2 3 2 2 1 1 1 2 3 4 4 5 4 5 5 4 5 4 5 4 4 3 3
15 14 15 18 18 18 18 15 17 14 12 12 14 15 12 14 14 18 10 14 8 11 14 13 9 11 10 13 14 12 13 13 10 8 9 15 16 16 14 13 14 13 12 10 9 6 4 3 2 2 2 2 3 5 3 2 1 3 3 3 2 3 2 2 2 1 1 1 1 1 2 3 3 4 4 5 4 2 3 4 2 4 5 5 5 5
11 15 16 18 19 18 19 16 16 16 12 11 11 17 18 14 12 14 16 13 12 12 13 16 12 6 11 10 12 14 13 10 8 8 10 15 12 12 11 10 11 10 12 12 11 10 8 6 4 4 3 3 5 5 4 4 4 4 3 2 2 2 1 1 1 1 0 1 2 2 2 4 4 5 5 4 3 3 3 3 2 2 3 5 6 6
13 17 16 17 19 18 16 16 15 17 13 11 8 16 16 17 14 11 19 15 9 9 9 18 14 10 11 12 15 13 14 13 12 14 14 17 14 11 10 7 6 10 11 8 9 8 7 7 6 7 5 5 6 4 4 4 5 5 5 4 3 3 2 1 1 1 1 2 3 3 2 3 4 5 5 5 5 4 3 3 4 2 2 4 5 5
15 17 18 17 18 16 16 15 14 17 15 10 13 15 16 16 14 14 17 11 10 10 11 13 18 12 9 12 17 17 16 17 17 14 16 16 17 13 11 7 8 8 11 11 10 11 10 9 7 6 5 5 6 4 4 3 3 3 3 3 4 3 3 3 3 2 2 2 3 4 4 5 4 5 5 5 5 4 4 4 3 3 3 4 5 5
14 15 16 18 14 14 14 15 18 17 15 14 14 12 13 15 15 13 11 12 9 8 10 15 16 11 10 12 14 16 15 17 15 13 11 18 15 10 8 7 6 10 11 12 12 11 11 9 8 6 5 5 3 2 3 3 2 1 1 1 1 2 3 2 3 3 3 4 4 4 4 6 6 5 6 5 7 6 5 5 5 5 5 5 3 4
14 16 18 15 14 13 14 16 18 15 15 11 18 12 12 13 10 12 11 12 9 9 13 16 20 15 10 12 13 14 13 12 13 13 15 14 14 9 6 8 7 7 11 10 11 11 11 9 8 5 5 5 4 2 2 2 1 1 1 1 1 2 1 1 1 3 3 3 3 4 5 5 6 6 6 7 7 7 7 7 6 5 5 2 5 6
16 15 14 11 16 12 14 15 15 16 17 16 12 12 10 9 10 10 9 10 7 10 13 16 17 20 12 8 12 11 14 17 15 16 19 18 15 11 10 7 7 5 7 10 10 11 11 11 9 7 7 6 5 4 5 4 3 2 1 2 1 4 3 4 4 2 2 3 2 3 4 4 4 4 5 6 7 7 8 8 8 7 5 1 2 3
17 14 12 14 13 16 12 12 13 16 14 15 14 14 13 9 6 8 9 10 10 7 13 18 17 16 16 9 5 15 16 18 14 14 16 18 16 16 14 11 10 8 11 9 9 9 9 9 7 7 6 6 5 5 5 5 4 4 5 7 5 5 5 6 6 7 6 5 5 5 4 4 4 4 5 6 6 6 7 7 7 7 8 3 2 3
12 16 18 17 16 17 17 14 12 14 14 16 15 12 13 12 10 8 9 5 9 13 14 15 16 12 9 3 19 6 10 18 18 13 12 15 15 15 13 12 11 9 10 10 9 9 9 8 7 6 6 5 5 6 5 5 5 5 6 6 7 5 6 6 5 6 6 6 6 6 6 6 6 6 6 6 6 6 6 7 7 7 7 6 6 5
12 16 17 18 11 12 16 13 13 11 14 15 14 14 12 12 9 8 9 10 11 9 12 12 11 8 9 4 12 20 19 17 17 16 13 15 15 13 13 13 12 11 10 9 9 10 9 8 7 6 5 5 5 6 5 5 6 5 5 5 6 7 6 5 5 5 6 6 7 7 7 7 7 6 6 5 6 7 7 7 8 7 6 5 6 6
19 12 12 15 11 17 19 18 16 15 13 14 14 13 12 13 9 11 5 8 9 9 7 8 1 8 7 8 9 12 18 19 18 17 16 15 13 13 11 10 11 10 10 10 10 10 9 8 7 6 5 6 6 5 4 5 4 4 4 5 5 7 6 6 7 7 7 8 7 8 8 8 8 7 7 6 6 5 7 8 8 8 7 5 5 7
13 13 16 18 20 19 21 18 18 15 11 12 14 15 14 11 11 3 5 10 1 1 9 4 5 8 7 9 5 12 19 19 18 16 15 14 13 12 10 10 10 9 9 9 9 8 8 8 7 7 6 5 5 4 5 5 5 6 6 6 7 7 8 8 8 7 7 7 8 8 8 8 9 9 9 9 10 9 8 9 7 6 8 8 7 7
9 11 15 16 22 17 20 18 19 16 12 10 14 15 14 14 13 6 6 5 6 7 6 7 11 9 8 1 5 6 15 15 16 15 14 13 13 12 10 10 9 9 9 10 10 8 8 7 8 7 6 6 6 5 5 6 5 4 5 6 7 7 7 8 7 7 7 8 8 8 8 9 9 9 10 9 9 8 8 8 6 6 7 7 7 7
12 10 14 16 15 15 15 17 19 19 20 14 15 11 13 8 12 8 3 7 9 8 5 10 15 12 11 8 11 14 14 16 16 16 13 13 12 13 12 12 11 10 9 8 8 8 7 7 7 7 6 6 6 5 5 5 5 5 6 7 6 6 6 6 6 6 5 6 6 6 7 8 7 8 9 9 8 7 7 7 6 7 7 7 7 7
10 8 9 15 17 15 13 13 13 15 19 19 14 15 13 8 9 6 5 6 9 8 8 7 12 7 10 11 18 18 17 17 17 14 13 13 13 12 11 10 10 7 8 8 8 8 7 7 7 6 5 6 6 5 6 7 6 7 6 6 5 5 6 7 7 7 7 6 6 6 7 8 9 9 9 9 9 8 8 8 8 8 7 8 8 7
5 6 2 11 19 15 13 12 15 14 14 16 14 12 12 8 7 10 7 12 8 7 9 5 5 6 4 14 18 19 20 19 17 15 12 13 13 12 11 9 8 8 7 8 8 8 7 7 6 6 6 6 6 6 5 4 5 6 5 5 6 7 8 6 6 6 5 6 7 8 9 8 8 8 9 9 10 9 8 7 7 7 7 7 6 6
3 6 3 5 13 15 14 16 16 18 17 15 14 12 14 15 13 14 11 12 12 9 6 8 6 6 8 2 13 20 18 18 18 17 14 13 13 11 9 9 8 8 8 8 8 7 7 6 6 6 6 6 6 5 5 5 5 5 6 6 6 6 6 7 8 8 8 8 8 9 9 9 8 8 9 9 8 8 7 7 8 7 7 7 7 6
5 3 6 4 11 13 15 16 17 17 19 17 15 13 15 13 12 10 9 9 11 11 11 9 3 1 6 6 1 14 17 19 18 17 15 14 13 11 10 10 10 9 9 8 8 8 7 6 6 6 7 6 6 5 6 6 6 5 6 4 4 6 7 7 7 8 9 9 9 9 8 8 8 9 9 9 7 9 9 8 7 7 7 8 8 7
8 3 6 9 11 14 17 16 18 19 19 18 17 17 15 15 16 13 10 4 5 6 8 5 2 3 8 9 10 4 15 15 15 16 16 13 11 11 12 11 11 10 8 8 8 7 7 6 6 7 7 6 5 5 5 5 6 6 5 6 7 8 9 9 9 9 9 8 8 8 8 9 8 8 10 10 8 9 8 8 7 7 8 7 6 7
6 7 9 8 8 10 11 13 15 17 17 13 14 16 18 17 20 16 11 2 4 8 10 7 3 2 5 8 10 10 15 16 16 15 15 14 11 11 12 10 10 10 9 9 9 8 8 8 7 7 6 5 6 6 5 7 6 5 6 6 7 7 8 8 8 8 8 7 7 7 8 9 10 11 12 10 9 11 10 10 9 7 8 8 8 8
7 8 9 10 12 12 10 13 15 15 18 14 15 19 21 22 17 10 9 7 7 6 13 1 5 8 10 10 13 13 16 15 14 14 13 13 12 11 10 10 9 9 9 9 9 9 9 7 7 7 6 6 6 6 6 6 6 7 7 6 6 8 8 8 7 6 6 6 7 7 9 9 10 11 12 12 11 12 10 9 10 8 8 9 9 9
4 8 10 10 11 11 11 11 11 12 12 15 17 21 20 20 19 14 6 7 7 5 7 8 16 16 15 15 15 14 14 16 16 15 14 13 13 12 11 9 9 9 9 10 9 8 8 7 8 8 7 5 6 8 7 7 8 8 7 7 8 8 7 6 5 7 6 7 7 8 9 10 10 10 10 9 10 10 11 11 11 10 10 9 10 10
6 7 13 15 14 13 15 14 6 14 17 18 19 19 20 19 17 15 8 8 7 6 2 11 21 19 17 19 18 17 16 17 15 15 15 12 12 11 10 10 11 10 10 9 9 9 10 8 6 5 6 5 8 8 7 8 8 8 8 8 8 8 6 5 6 8 9 9 10 10 9 9 9 9 9 9 10 11 11 12 12 12 11 10 10 11
7 5 10 14 15 12 7 9 13 10 10 17 21 18 18 20 17 17 9 9 8 5 3 17 20 20 19 19 18 17 17 17 16 16 14 13 12 12 12 11 11 11 10 11 10 10 10 9 6 5 5 7 8 8 7 8 8 7 7 8 7 7 8 8 9 10 10 11 10 10 9 8 8 8 9 11 11 12 12 12 12 12 12 12 11 9
4 8 6 7 6 10 9 8 8 16 11 12 17 16 16 15 18 16 10 8 4 8 15 16 10 14 17 17 15 15 16 16 15 14 14 14 13 13 12 12 12 11 11 11 11 10 10 9 9 7 7 8 9 8 8 7 8 8 7 6 7 9 9 8 10 11 10 11 10 9 9 9 8 9 10 11 11 12 12 12 11 12 13 13 13 12
9 1 7 7 10 11 9 8 10 9 8 10 12 15 17 13 13 16 3 16 17 13 18 20 19 12 6 12 15 14 13 14 15 15 15 14 14 13 12 12 12 12 11 11 11 11 10 10 9 9 9 8 8 8 8 8 7 6 8 8 8 8 7 10 10 11 10 10 9 10 10 9 10 10 11 11 11 11 12 12 11 11 12 11 12 13
10 4 1 3 6 5 5 10 7 7 7 8 13 11 10 12 3 9 5 7 16 14 18 20 15 10 5 10 11 13 15 16 17 16 14 13 13 13 12 12 12 11 11 11 11 11 10 10 9 9 9 7 7 9 9 7 7 8 9 9 9 8 12 11 11 11 11 10 9 10 11 10 11 11 11 11 12 12 11 11 11 12 11 11 12 12
7 6 4 3 5 3 5 5 7 3 7 3 4 10 6 16 13 9 11 12 18 20 15 9 8 12 16 14 14 13 16 16 16 15 15 15 14 13 13 12 12 11 11 11 11 11 10 9 8 7 7 8 7 8 9 9 9 9 9 9 5 10 12 13 12 11 11 11 11 11 11 11 11 11 11 12 12 11 11 11 12 12 12 12 10 11
8 8 4 4 3 2 7 8 3 3 9 5 4 12 5 10 14 15 9 7 7 7 9 11 13 14 14 13 15 12 13 13 13 12 12 12 11 11 12 13 12 11 11 10 10 10 10 8 6 7 5 6 8 9 7 7 9 9 7 6 9 12 12 12 12 11 11 11 12 12 12 12 12 12 12 12 11 11 11 11 12 12 11 11 11 12
9 5 2 5 1 2 5 8 4 6 3 4 5 11 2 12 17 18 13 12 14 17 24 22 18 15 12 12 14 13 11 11 12 15 12 10 10 11 12 13 12 11 11 11 10 10 9 8 7 6 6 9 7 4 6 8 9 8 7 8 11 11 13 12 11 11 11 12 12 12 12 12 11 11 12 12 11 11 11 11 11 12 11 10 10 11
6 6 4 2 1 3 2 2 5 1 3 2 3 13 3 11 12 19 14 13 12 11 18 23 20 15 13 13 13 12 12 11 11 9 8 8 9 10 11 10 10 10 11 10 9 8 8 8 7 7 6 6 5 7 8 8 7 7 8 11 10 12 12 12 11 11 11 12 11 12 12 12 11 11 12 12 11 11 11 11 11 11 9 9 9 9
10 9 4 4 5 3 2 2 1 3 2 4 7 5 3 4 6 7 8 6 7 10 15 20 15 13 14 15 14 13 13 13 12 8 7 9 10 10 9 9 10 11 10 9 8 8 7 7 8 7 7 6 6 7 8 7 7 6 10 11 11 12 12 12 12 12 11 12 12 12 12 12 13 12 12 12 12 12 12 11 10 10 8 9 9 9
9 6 6 5 1 0 4 3 0 2 5 3 4 5 4 2 9 8 11 6 7 10 13 18 18 17 16 16 15 15 13 14 9 5 5 10 11 12 10 9 10 9 9 9 8 8 8 8 8 7 7 8 8 9 8 8 7 10 11 11 11 11 12 12 12 11 12 12 12 12 12 12 12 12 12 12 12 12 11 9 8 9 8 9 10 11
4 4 5 6 2 2 3 3 3 3 0 2 4 7 4 4 7 7 5 5 9 12 12 16 19 18 18 17 16 13 10 9 8 8 6 9 11 12 12 11 10 9 9 9 8 9 9 8 8 8 9 9 9 8 8 9 9 10 11 10 11 11 12 12 11 11 11 11 12 12 11 11 11 12 12 12 12 11 12 10 9 7 8 8 9 9
4 2 2 4 4 1 2 3 2 0 1 2 2 5 4 8 2 2 4 5 12 14 15 16 18 19 17 18 15 11 8 10 13 12 9 10 11 11 10 11 11 10 10 9 9 9 9 8 8 9 8 8 8 7 8 7 7 10 11 11 10 12 12 11 11 11 11 11 11 10 10 9 10 10 11 11 11 11 10 9 9 10 9 9 9 9
3 1 2 4 5 9 8 1 2 2 1 2 4 4 5 2 4 3 4 5 14 15 15 15 17 16 16 14 9 3 3 7 12 15 14 13 12 11 11 11 11 11 10 9 9 8 8 8 8 9 9 8 8 8 8 7 6 11 10 10 10 11 11 10 10 11 11 11 11 12 12 10 10 11 11 10 9 8 9 9 9 9 9 9 8 9
2 2 2 3 1 5 5 6 2 2 0 6 2 4 5 2 3 3 4 10 15 16 15 15 16 14 13 8 5 8 12 16 15 14 15 13 11 11 12 12 12 10 9 9 8 9 9 9 9 9 9 9 9 9 9 8 9 10 10 10 10 10 9 9 10 9 10 10 11 11 11 10 10 9 9 9 9 9 9 8 8 7 7 6 7 8
1 1 2 2 1 3 2 5 4 3 1 3 5 4 1 3 2 7 12 13 13 15 16 14 14 13 10 12 12 14 17 17 14 14 14 13 10 11 11 12 11 10 9 9 9 9 9 10 10 10 10 10 10 9 9 10 11 10 9 10 10 9 9 9 8 9 9 9 9 8 9 8 9 9 9 8 9 10 10 9 9 9 8 8 7 7
1 0 1 1 3 1 2 2 2 3 4 1 4 2 6 7 8 11 11 13 12 12 13 10 11 12 13 15 16 16 16 17 14 12 12 11 10 10 11 11 10 10 10 9 9 9 10 10 10 10 10 10 9 9 9 9 10 9 10 10 8 8 8 8 8 8 8 8 9 9 10 10 10 8 8 10 10 10 11 10 9 9 9 8 8 8
4 4 1 2 3 1 2 3 2 2 6 6 7 10 10 10 11 13 12 12 14 11 12 12 14 14 14 16 18 18 17 15 16 13 13 12 11 12 11 11 10 10 10 9 8 8 9 10 11 10 11 10 10 9 10 9 10 10 10 8 8 8 9 8 8 8 8 9 8 9 10 9 10 10 9 10 11 11 11 11 10 10 9 8 8 8
9 14 12 11 7 11 10 7 4 5 6 8 7 9 11 12 12 13 13 12 11 12 11 12 14 15 15 15 18 14 14 16 15 14 13 12 12 12 10 11 10 10 10 9 10 10 10 11 11 11 11 11 11 9 8 9 9 9 9 8 8 9 9 8 7 8 9 9 9 10 11 11 11 11 10 10 10 10 10 10 10 9 9 9 9 8
12 12 5 8 14 5 4 4 6 7 7 8 10 10 10 10 10 9 10 10 11 12 14 14 14 15 15 13 14 17 14 13 15 13 12 12 11 10 9 9 8 8 8 9 8 8 9 10 11 12 11 11 9 9 9 9 9 9 8 8 8 8 8 8 8 7 6 7 8 8 8 9 8 8 9 8 8 8 9 9 8 9 10 9 9 9
8 11 11 9 6 3 7 8 7 6 7 9 9 9 10 11 11 10 10 11 13 14 15 16 16 16 14 14 14 16 16 13 12 12 13 12 10 10 10 9 8 7 6 4 4 6 10 10 11 11 11 10 9 9 9 10 10 10 9 9 9 8 7 7 7 7 7 7 6 5 7 7 9 9 7 8 7 7 7 8 8 7 8 8 8 8
4 5 4 7 9 12 12 9 8 7 9 9 10 9 9 10 12 13 14 15 16 17 17 15 13 14 15 16 17 17 17 14 12 11 11 8 8 8 6 7 9 7 4 7 6 6 10 10 10 11 11 10 9 8 8 9 9 9 9 9 9 7 7 6 7 6 7 6 5 5 5 5 7 7 7 7 8 7 6 5 5 7 6 7 6 6
6 10 12 12 10 8 8 11 14 10 7 8 10 12 13 14 14 16 16 17 16 16 16 16 15 14 15 15 15 15 16 14 13 13 12 10 10 10 8 9 9 8 5 6 9 10 10 9 9 10 10 9 8 8 9 8 8 8 8 8 8 7 7 7 7 7 7 6 6 6 6 5 5 7 7 7 7 7 8 12 13 9 6 4 9 12
10 8 2 0 2 6 12 18 9 10 13 9 11 12 13 13 15 16 16 16 15 15 16 18 18 17 16 15 13 15 15 16 16 14 13 12 12 10 9 10 10 9 8 6 10 12 9 8 9 8 9 8 7 8 9 8 9 8 9 8 7 7 7 7 6 6 6 6 5 5 6 5 5 7 5 7 7 6 7 5 7 11 12 9 7 9
Wind_Direction
173 203 207 209 214 209 214 223 221 234 246 223 214 207 221 231 223 231 188 167 181 200 212 221 214 230 231 177 173 173 205 215 121 138 140 145 130 99 76 83 66 49 6 299 166 128 116 114 102 97 102 99 96 99 107 115 115 131 111 124 87 104 113 34 30 55 40 24 333 40 261 246 185 191 225 187 194 201 179 182 187 196 175 189 192 202
206 210 214 212 214 218 211 222 227 237 246 250 231 217 217 230 225 228 181 162 172 216 198 225 225 229 220 164 169 174 189 176 130 136 156 156 133 106 102 99 108 123 233 187 118 76 78 87 85 80 96 118 121 114 114 112 110 104 108 84 139 139 115 108 50 53 115 83 58 341 343 345 331 274 186 216 210 212 152 180 193 190 187 186 191 197
209 216 211 214 211 222 223 214 225 234 243 252 254 217 223 220 244 213 200 159 170 207 195 211 233 230 206 158 166 201 183 164 142 144 155 154 136 117 121 121 113 135 223 184 124 79 114 113 120 136 119 117 105 120 115 119 119 130 111 98 68 67 50 74 92 79 48 60 28 347 338 328 325 310 332 307 287 195 187 202 215 197 206 188 189 192
205 215 212 212 213 218 224 222 216 232 240 246 244 258 215 218 217 185 230 170 170 186 200 199 226 234 195 155 175 190 198 189 144 158 160 146 145 132 140 140 137 154 207 204 148 140 108 110 111 148 145 107 120 123 119 131 111 110 133 106 104 100 56 67 72 29 58 59 40 297 329 318 292 309 324 299 291 254 245 230 215 217 208 219 208 195
210 203 204 213 212 212 222 216 219 223 227 232 245 242 235 221 199 237 194 171 153 169 239 185 225 236 197 152 176 150 184 205 157 173 169 143 151 137 143 139 145 157 176 189 112 104 114 129 53 100 130 108 102 95 96 90 121 96 89 100 101 81 77 81 124 127 117 91 232 216 228 224 242 233 240 261 251 244 221 225 210 218 211 212 216 203
209 208 192 211 212 210 218 218 216 217 227 224 233 243 241 233 201 224 184 179 170 180 224 218 195 232 172 183 174 169 192 197 182 173 137 121 141 131 130 134 139 132 138 160 150 144 149 149 173 127 60 135 95 74 60 62 49 81 90 93 90 100 145 89 102 210 45 301 300 285 261 272 249 252 226 222 252 250 237 237 226 215 208 204 211 204
220 198 201 202 210 209 213 224 210 214 225 225 210 232 251 248 228 225 153 172 181 208 189 231 207 211 175 185 168 198 166 154 129 137 129 111 138 127 114 128 121 119 122 134 137 145 148 147 162 150 141 112 94 66 40 30 29 36 50 71 80 126 112 137 353 358 171 261 254 264 291 297 295 300 297 313 309 291 298 293 242 219 202 211 214 212
223 201 201 200 208 211 212 217 210 203 219 227 207 225 239 257 242 208 153 181 195 208 203 222 230 220 186 176 183 181 163 182 190 172 182 138 134 113 106 95 89 126 125 122 118 128 132 128 123 107 89 82 76 61 53 34 18 24 17 16 24 17 8 95 92 254 301 303 295 309 293 264 280 290 298 300 295 282 262 266 273 269 300 253 239 219
205 221 196 200 204 211 213 212 212 203 216 222 211 213 227 240 248 239 169 172 203 179 215 221 223 238 206 182 191 189 183 193 200 186 190 142 135 125 125 132 118 139 125 123 120 111 107 97 87 89 90 84 78 62 65 59 27 6 0 6 0 12 354 15 0 346 321 304 321 317 307 307 302 300 296 299 298 301 306 288 275 259 239 233 235 237
192 225 208 199 201 214 212 204 220 204 213 220 239 199 225 230 247 263 232 186 177 204 212 221 212 226 232 165 196 187 195 199 185 168 94 115 120 117 123 124 128 128 118 114 110 106 102 97 90 91 104 95 91 81 115 106 117 140 327 21 333 29 348 12 355 353 342 345 337 318 313 315 319 322 318 319 311 306 299 285 282 266 259 269 262 282
189 187 242 232 193 214 211 212 216 208 212 217 241 226 209 224 238 250 257 215 191 217 218 219 211 218 237 199 187 182 190 186 169 154 114 99 108 106 79 78 93 99 116 116 110 105 101 95 87 90 96 96 83 82 79 79 108 185 117 274 27 82 312 31 8 5 348 338 332 323 323 319 317 317 315 316 314 311 307 301 292 282 270 276 335 320
225 176 213 233 213 203 216 208 207 216 189 217 229 229 183 213 230 249 251 198 204 217 214 228 216 195 239 222 203 179 173 180 174 154 122 136 135 148 136 146 152 130 104 107 98 101 101 98 92 90 83 71 68 58 54 39 2 359 353 339 1 56 24 17 8 350 341 327 314 286 287 288 287 300 307 304 303 305 304 306 305 305 295 275 236 224
218 207 186 231 209 213 201 221 190 222 196 211 223 232 207 185 207 224 239 196 200 210 206 216 215 196 212 253 265 164 184 187 162 124 125 125 129 128 135 133 117 98 91 98 106 102 97 95 92 85 80 72 63 47 47 33 12 1 14 3 15 46 24 19 354 356 354 344 334 326 318 310 303 288 282 288 296 296 294 297 301 305 307 342 248 255
216 222 187 218 206 186 208 202 193 204 198 212 217 220 215 197 193 223 216 217 205 220 222 212 213 228 173 56 344 192 90 74 76 88 109 124 110 104 107 105 107 107 111 113 109 104 97 94 90 85 81 77 67 60 48 41 26 21 25 13 2 23 16 17 357 1 342 341 338 338 334 333 338 334 330 325 312 315 319 317 311 311 313 319 308 277
200 203 212 189 209 176 231 222 208 202 195 212 214 219 216 210 196 202 215 203 207 215 216 228 212 192 148 83 47 77 100 112 120 128 127 105 101 102 102 103 105 108 107 106 103 98 99 97 93 89 83 74 71 64 51 38 31 28 28 13 12 3 21 358 3 347 347 343 345 340 336 333 330 325 324 319 315 310 308 313 315 315 315 315 297 288
209 219 210 195 209 192 210 224 232 193 201 209 214 224 211 213 199 213 205 236 201 222 226 233 60 13 71 87 53 96 102 104 109 104 109 112 113 111 107 107 105 103 108 109 102 100 97 91 87 83 69 58 56 56 63 58 40 35 17 12 13 357 9 357 2 359 353 350 349 342 340 338 332 329 326 315 311 317 322 318 324 325 321 317 300 296
192 211 202 177 205 197 208 215 226 214 204 183 216 212 211 212 212 187 178 229 326 239 229 118 112 80 113 93 78 98 102 106 114 119 120 117 113 106 108 107 104 109 112 110 102 98 98 95 85 83 76 70 56 50 44 46 34 28 20 12 6 9 8 2 360 0 351 349 343 341 343 341 338 335 328 327 325 329 333 333 340 331 325 318 306 306
210 207 206 196 195 208 191 212 227 229 225 177 216 218 200 208 230 207 212 175 228 225 220 154 134 150 148 212 148 132 122 124 126 128 121 117 116 111 112 107 111 117 110 104 102 99 96 88 85 81 71 69 69 55 48 44 29 28 29 14 13 14 2 3 358 355 356 350 348 345 346 341 333 328 328 330 328 335 339 341 338 328 318 315 309 303
228 212 195 192 195 212 191 198 225 237 234 214 203 215 219 178 211 207 217 198 198 214 232 190 146 162 178 141 163 173 154 147 140 130 126 124 121 118 116 117 119 117 112 110 107 102 93 82 76 66 66 63 54 44 45 45 33 33 28 17 16 8 358 9 358 358 357 3 343 342 338 330 327 330 329 328 324 336 343 336 341 326 318 317 311 303
210 238 189 187 194 191 190 202 216 215 207 226 215 202 219 234 219 221 207 234 204 212 223 161 164 173 198 153 172 171 163 153 141 137 137 129 124 121 120 126 125 128 125 118 109 101 94 87 77 71 69 65 54 49 44 34 27 29 24 8 6 357 11 15 11 359 356 354 348 344 338 337 333 334 334 330 333 340 341 348 340 336 336 325 315 310
213 231 254 181 191 186 196 194 215 207 190 200 207 200 190 233 218 241 199 216 203 222 210 186 194 172 182 159 173 168 161 154 146 143 139 134 125 124 127 129 131 128 122 115 107 101 97 92 91 82 66 58 50 44 49 44 41 29 14 10 11 17 12 8 14 357 356 356 357 353 349 340 335 338 333 332 339 339 344 353 341 338 328 311 323 321
229 185 260 188 182 201 202 189 215 206 202 203 212 208 204 204 215 210 220 204 218 211 214 215 210 85 37 205 175 160 148 153 145 134 134 129 130 127 127 127 124 116 108 105 101 104 102 95 89 84 79 71 60 53 51 55 43 34 27 18 16 13 21 9 11 5 360 15 1 354 351 345 342 337 337 336 343 345 348 347 348 342 331 328 327 316
209 172 214 220 198 198 207 192 212 225 215 204 198 219 214 200 219 219 231 204 214 220 228 232 167 72 20 26 112 147 143 139 133 133 127 129 122 119 120 121 117 113 116 113 113 108 102 95 92 84 76 68 60 48 47 48 44 34 22 18 29 27 27 24 18 12 14 10 358 355 357 347 342 340 340 343 348 350 353 351 341 346 345 339 335 341
146 226 202 208 198 212 211 202 194 219 225 226 204 217 221 212 203 227 228 217 216 215 225 213 168 73 33 52 60 358 114 116 123 122 122 120 124 128 121 116 116 119 120 121 112 104 104 101 88 73 70 73 77 61 52 50 44 38 23 13 26 29 22 25 23 19 20 11 0 2 356 351 341 352 354 351 351 354 350 348 341 352 353 348 342 350
168 192 215 182 196 204 209 206 201 202 222 224 212 201 222 228 202 202 230 213 239 227 235 232 145 152 78 86 93 107 110 115 119 121 122 123 124 121 118 121 127 127 121 114 110 104 93 84 77 76 77 71 67 68 55 50 47 44 43 31 31 31 30 27 19 27 24 12 1 5 2 2 1 5 359 355 2 2 359 1 357 5 1 359 360 352
184 163 207 190 194 191 199 206 198 191 209 218 223 209 213 226 229 210 211 201 230 204 229 179 95 109 117 107 118 117 120 121 124 126 124 121 122 120 124 131 129 123 113 106 100 92 91 93 91 89 89 89 86 81 71 66 54 47 42 39 38 37 35 26 23 28 30 14 9 13 14 12 13 10 5 7 8 2 3 6 6 10 13 8 2 2
197 181 205 219 197 203 208 221 215 209 196 219 213 218 209 216 226 231 216 225 226 191 227 126 138 133 139 150 145 140 136 133 135 134 128 126 125 124 128 132 129 121 118 111 108 98 95 85 87 89 91 89 85 77 69 61 56 51 48 45 39 44 39 25 18 34 31 22 23 19 24 21 14 12 10 7 6 3 3 6 5 9 16 8 9 13
191 207 204 223 227 217 211 205 221 218 207 210 223 217 215 208 225 241 221 222 213 233 211 117 137 142 153 155 151 145 139 137 136 133 127 123 126 130 136 131 122 120 116 113 107 107 105 102 99 93 91 96 82 76 75 71 63 53 47 45 43 36 33 25 26 30 31 26 24 25 25 22 16 14 12 11 14 12 10 10 10 8 8 8 12 15
191 224 209 217 225 246 256 273 268 287 273 213 219 219 209 204 214 235 238 235 208 227 189 146 147 147 164 163 156 145 141 137 135 132 128 125 127 132 136 135 129 121 117 111 112 110 105 99 94 85 92 96 88 76 66 68 67 62 58 53 47 47 40 31 31 33 32 29 23 22 21 21 15 18 19 19 20 20 19 18 15 12 11 12 12 16
195 224 197 219 224 252 244 252 268 252 261 293 215 220 234 221 208 223 228 230 195 117 120 143 127 137 150 143 142 135 132 127 127 126 127 131 135 142 136 132 128 123 117 115 110 104 101 106 105 105 95 80 74 72 75 68 64 59 53 57 55 54 44 36 37 36 30 31 29 24 25 22 20 23 22 23 24 25 24 22 20 20 19 15 16 18
215 4 337 190 218 222 235 253 273 282 281 311 284 219 227 238 229 215 153 78 91 101 103 102 97 84 17 99 109 122 126 126 126 133 136 139 142 139 135 131 125 121 119 120 114 108 109 108 106 102 93 86 87 85 71 63 57 61 54 42 49 55 54 49 47 39 26 30 30 29 29 30 29 28 30 28 28 29 27 25 23 22 21 20 21 20
193 151 81 206 215 214 219 241 248 257 293 309 317 264 243 237 207 32 90 133 119 120 112 106 108 113 111 102 113 125 131 134 137 139 141 142 139 136 134 129 124 123 124 121 118 115 109 98 98 89 77 76 82 75 72 63 56 50 51 40 32 42 57 54 48 38 29 28 28 31 32 30 28 31 33 33 32 32 32 29 27 24 23 22 25 25
189 136 172 196 218 197 219 194 232 76 14 308 40 339 17 87 107 93 77 111 125 127 122 133 144 145 145 139 129 136 139 140 138 141 142 140 137 137 135 128 124 128 125 123 122 120 107 94 86 92 81 77 71 70 64 67 63 55 51 48 14 54 61 54 45 38 31 27 28 33 35 32 31 32 34 34 33 33 33 32 33 30 24 24 26 30
198 171 176 173 194 157 89 88 83 124 221 207 54 300 341 92 100 89 62 46 69 95 108 110 112 118 128 135 134 146 142 140 138 134 136 136 136 133 129 127 126 122 121 119 120 113 102 92 77 62 80 105 75 61 66 66 65 69 64 53 53 59 61 55 48 39 34 29 31 33 35 37 34 36 37 36 34 35 33 33 35 34 31 28 29 32
197 169 172 135 196 120 109 104 98 210 238 44 305 291 41 91 94 88 85 67 77 92 101 105 110 122 132 137 132 125 117 116 127 131 128 126 125 124 123 127 129 126 121 120 113 106 95 89 84 69 37 51 56 66 60 56 61 60 61 59 63 58 58 55 48 43 37 35 32 34 37 38 37 37 39 38 36 37 37 35 36 37 35 31 27 29
168 182 149 125 179 119 168 134 183 164 39 282 34 297 92 99 91 87 66 60 75 96 116 122 130 135 136 126 119 115 111 99 81 65 83 105 110 115 120 120 123 124 120 103 98 95 92 86 81 69 51 45 58 72 69 66 53 57 62 58 58 61 57 54 50 45 40 38 33 35 37 40 40 41 40 40 39 38 38 38 37 38 35 35 34 31
190 200 183 162 183 191 104 117 345 344 189 138 151 257 143 160 114 115 110 66 87 108 126 125 116 114 116 121 114 111 110 98 82 58 47 91 102 103 99 98 100 96 96 97 95 91 87 83 78 72 69 55 25 60 77 68 64 58 56 58 56 56 58 56 52 46 44 44 42 37 36 41 45 43 40 38 39 38 37 35 34 38 34 37 34 32
193 208 170 171 104 204 145 100 145 205 205 194 189 181 27 35 76 102 103 95 98 109 123 129 123 126 125 130 126 120 113 93 89 95 93 97 104 110 104 95 102 112 112 103 97 91 87 83 76 72 73 69 52 32 49 73 74 61 62 60 57 56 55 55 54 51 47 46 45 43 39 39 41 42 40 38 38 38 37 37 38 38 34 40 38 35
35 23 230 182 123 112 135 149 192 201 352 2 168 158 151 89 116 108 97 131 151 131 139 135 136 140 139 137 136 142 135 121 140 140 127 110 118 125 128 129 126 116 107 101 100 96 88 81 78 77 73 72 70 61 53 48 58 74 69 64 61 62 61 59 58 56 53 51 51 51 50 45 41 43 45 42 39 36 34 29 31 43 38 41 47 45
226 167 156 168 113 81 99 186 176 335 56 188 187 113 86 20 354 288 186 190 165 159 150 149 145 147 144 146 150 167 161 149 156 153 138 133 138 136 128 121 115 111 107 107 103 100 100 97 89 82 79 77 76 78 73 59 53 64 72 67 66 65 62 60 60 60 58 55 52 55 54 49 47 46 45 46 44 42 40 34 31 28 34 35 38 45
195 151 141 204 161 167 168 90 105 117 356 119 138 150 73 25 358 194 210 131 153 154 156 151 152 153 153 155 175 118 22 107 137 142 144 141 139 134 126 118 114 114 112 108 102 98 90 84 82 84 82 81 77 71 66 65 79 81 70 71 69 68 66 64 63 60 58 55 53 50 47 44 45 44 44 44 44 46 46 43 41 39 41 41 41 45
101 66 76 29 211 207 191 142 123 80 2 310 340 55 72 183 200 185 75 128 136 147 149 151 151 153 155 147 98 105 109 114 131 137 139 136 131 129 125 119 112 106 102 102 105 105 99 93 87 79 77 75 76 77 75 68 60 73 76 73 70 71 77 71 64 61 62 63 61 60 54 51 47 47 48 41 39 37 40 38 40 40 42 44 44 47
60 126 134 151 106 92 5 124 154 146 160 323 339 211 75 268 89 112 127 118 129 135 146 146 145 146 124 108 112 115 116 123 131 137 134 128 123 118 115 114 113 115 117 118 111 110 110 105 96 91 86 79 75 75 77 77 71 66 68 69 63 62 62 67 69 64 64 60 59 61 64 62 58 55 49 45 41 40 35 31 31 29 31 36 40 41
223 143 69 55 355 87 159 195 102 51 99 349 286 86 55 76 120 111 113 112 116 129 139 135 121 114 119 124 125 124 126 126 127 127 121 115 112 113 116 118 118 116 109 99 94 95 98 98 94 89 84 83 80 81 80 78 81 80 78 70 67 69 70 64 58 60 67 69 62 52 46 45 48 51 57 50 42 39 36 28 25 27 25 29 30 31
319 104 276 112 359 342 79 98 148 57 60 45 84 101 85 78 87 95 106 118 129 126 125 128 131 126 129 131 130 131 130 133 131 131 127 127 127 123 121 120 118 116 114 115 117 114 104 100 99 93 89 86 88 87 83 79 79 78 74 74 75 71 72 69 71 64 57 60 66 68 60 50 41 36 40 55 49 41 34 30 25 26 17 20 30 35
108 123 117 97 86 99 76 82 102 111 95 77 71 92 92 86 93 106 112 116 126 133 134 129 131 130 132 134 130 132 131 136 131 127 130 129 121 117 118 116 113 111 112 114 111 105 105 103 99 99 97 93 89 83 78 80 81 81 80 81 79 76 71 72 75 78 76 68 59 60 68 62 53 45 38 48 58 53 44 40 34 32 24 21 24 27
144 163 139 102 163 140 77 111 105 105 109 99 93 94 94 97 100 107 116 118 124 133 129 130 130 131 129 127 127 128 129 133 130 124 112 106 104 107 102 91 77 77 74 88 98 107 107 104 101 97 97 96 92 92 92 90 83 78 75 72 74 75 77 77 72 67 69 79 86 86 79 77 71 61 54 50 60 63 56 46 43 41 38 36 29 27
104 100 106 134 147 91 138 136 127 103 95 114 117 116 111 107 106 110 115 118 120 125 129 125 128 127 131 129 132 130 128 125 117 117 117 113 118 113 98 83 74 69 116 130 120 144 117 102 98 94 92 88 85 86 85 80 79 80 81 80 75 73 71 71 75 78 76 68 63 68 88 102 97 83 65 58 53 53 60 61 49 43 34 27 31 38
84 190 104 105 100 108 110 116 131 117 98 102 107 105 106 105 109 113 116 120 122 120 124 128 127 129 132 131 133 131 126 125 113 106 104 94 90 99 102 97 96 95 71 153 155 126 94 102 102 99 94 89 88 89 91 97 101 100 97 88 81 75 70 64 58 63 65 68 68 62 58 82 102 100 92 77 63 54 34 21 51 64 50 20 5 13
108 86 114 112 120 151 165 156 150 133 133 125 117 116 110 114 118 118 123 123 124 124 125 126 124 123 125 128 131 130 125 121 120 120 121 125 132 124 129 119 101 84 83 113 105 104 108 99 94 91 88 84 85 85 81 77 72 72 80 91 104 104 99 90 75 59 51 45 51 53 50 42 58 111 115 103 100 88 66 50 46 33 51 52 13 12
51 36 56 44 192 164 150 155 163 118 122 112 114 116 115 124 129 128 127 128 127 126 125 126 127 128 130 131 132 133 133 136 138 139 131 127 127 127 118 107 107 103 77 94 113 108 88 86 93 103 104 104 94 88 86 84 81 76 68 64 63 78 90 90 85 82 76 60 47 44 60 54 52 39 89 129 127 104 106 104 51 44 38 32 14 12